Time,TemperatureF,DewpointF,PressureIn,WindDirection,WindDirectionDegrees,WindSpeedMPH,WindSpeedGustMPH,Humidity,HourlyPrecipIn,Conditions,Clouds,dailyrainin,SoftwareType,DateUTC
2013-01-26 00:02:00,48.0,39.0,30.19,NNW,336,0.0,0.0,72,0.00,,,0.00,,2013-01-26 06:02:00,
2013-01-26 00:12:00,48.0,39.0,30.19,NNW,336,0.0,0.0,72,0.00,,,0.00,,2013-01-26 06:12:00,
2013-01-26 00:21:00,48.0,39.0,30.20,NNW,332,0.0,0.0,72,0.00,,,0.00,,2013-01-26 06:21:00,
2013-01-26 00:31:00,48.0,40.0,30.19,NNW,332,0.0,0.0,73,0.00,,,0.00,,2013-01-26 06:31:00,
2013-01-26 00:41:00,48.0,40.0,30.19,NNW,332,0.0,0.0,73,0.00,,,0.00,,2013-01-26 06:41:00,
2013-01-26 00:52:00,48.0,40.0,30.19,NNW,332,0.0,0.0,73,0.00,,,0.00,,2013-01-26 06:52:00,
2013-01-26 01:01:00,48.0,40.0,30.18,NNW,332,0.0,0.0,73,0.00,,,0.00,,2013-01-26 07:01:00,
2013-01-26 01:12:00,48.0,40.0,30.18,NNW,332,0.0,0.0,73,0.00,,,0.00,,2013-01-26 07:12:00,
2013-01-26 01:21:00,48.0,40.0,30.19,NNW,332,0.0,0.0,74,0.00,,,0.00,,2013-01-26 07:21:00,
2013-01-26 01:33:00,48.0,40.0,30.18,NNW,332,0.0,0.0,74,0.00,,,0.00,,2013-01-26 07:33:00,
2013-01-26 01:41:00,48.0,40.0,30.18,NNW,332,0.0,0.0,74,0.00,,,0.00,,2013-01-26 07:41:00,
2013-01-26 01:52:00,47.0,39.0,30.18,NNW,332,0.0,0.0,74,0.00,,,0.00,,2013-01-26 07:52:00,
2013-01-26 02:02:00,47.0,39.0,30.17,NNW,332,0.0,0.0,74,0.00,,,0.00,,2013-01-26 08:02:00,
2013-01-26 02:11:00,47.0,39.0,30.17,NNW,332,0.0,0.0,74,0.00,,,0.00,,2013-01-26 08:11:00,
2013-01-26 02:21:00,47.0,39.0,30.18,NNW,336,0.0,0.0,74,0.00,,,0.00,,2013-01-26 08:21:00,
2013-01-26 02:31:00,47.0,39.0,30.18,NNW,335,0.0,0.0,74,0.00,,,0.00,,2013-01-26 08:31:00,
2013-01-26 02:42:00,47.0,39.0,30.18,NNW,335,0.0,0.0,74,0.00,,,0.00,,2013-01-26 08:42:00,
2013-01-26 02:54:00,47.0,39.0,30.17,NNW,336,0.0,0.0,75,0.00,,,0.00,,2013-01-26 08:54:00,
2013-01-26 03:02:00,47.0,39.0,30.18,NNW,335,0.0,0.0,74,0.00,,,0.00,,2013-01-26 09:02:00,
2013-01-26 03:11:00,47.0,39.0,30.18,NNW,335,0.0,0.0,74,0.00,,,0.00,,2013-01-26 09:11:00,
2013-01-26 03:22:00,47.0,39.0,30.17,NNW,334,0.0,0.0,75,0.00,,,0.00,,2013-01-26 09:22:00,
2013-01-26 03:32:00,47.0,39.0,30.17,NNW,332,0.0,0.0,75,0.00,,,0.00,,2013-01-26 09:32:00,
2013-01-26 03:42:00,47.0,39.0,30.17,NNW,332,0.0,0.0,75,0.00,,,0.00,,2013-01-26 09:42:00,
2013-01-26 03:52:00,47.0,40.0,30.16,NNW,332,0.0,0.0,76,0.00,,,0.00,,2013-01-26 09:52:00,
2013-01-26 04:01:00,47.0,40.0,30.16,NNW,332,0.0,0.0,76,0.00,,,0.00,,2013-01-26 10:01:00,
2013-01-26 04:11:00,47.0,40.0,30.16,NNW,332,0.0,0.0,76,0.00,,,0.00,,2013-01-26 10:11:00,
2013-01-26 04:21:00,47.0,40.0,30.16,NNW,332,0.0,0.0,76,0.00,,,0.00,,2013-01-26 10:21:00,
2013-01-26 04:31:00,47.0,40.0,30.15,NNW,332,0.0,0.0,77,0.00,,,0.00,,2013-01-26 10:31:00,
2013-01-26 04:42:00,47.0,40.0,30.15,NNW,332,0.0,0.0,77,0.00,,,0.00,,2013-01-26 10:42:00,
2013-01-26 04:52:00,47.0,41.0,30.15,NNW,332,0.0,0.0,78,0.00,,,0.00,,2013-01-26 10:52:00,
2013-01-26 05:01:00,46.0,40.0,30.15,NNW,332,0.0,0.0,80,0.00,,,0.00,,2013-01-26 11:01:00,
2013-01-26 05:12:00,46.0,40.0,30.15,NNW,332,0.0,0.0,80,0.00,,,0.00,,2013-01-26 11:12:00,
2013-01-26 05:22:00,46.0,41.0,30.16,NNW,332,0.0,0.0,84,0.00,,,0.00,,2013-01-26 11:22:00,
2013-01-26 05:32:00,45.0,41.0,30.16,NNW,330,0.0,0.0,87,0.00,,,0.00,,2013-01-26 11:32:00,
2013-01-26 05:42:00,45.0,41.0,30.16,NNW,330,0.0,0.0,87,0.00,,,0.00,,2013-01-26 11:42:00,
2013-01-26 05:52:00,45.0,42.0,30.16,NNW,330,0.0,0.0,88,0.00,,,0.00,,2013-01-26 11:52:00,
2013-01-26 06:02:00,44.0,41.0,30.15,NNW,330,0.0,0.0,89,0.00,,,0.00,,2013-01-26 12:02:00,
2013-01-26 06:12:00,44.0,41.0,30.15,NNW,330,0.0,0.0,89,0.00,,,0.00,,2013-01-26 12:12:00,
2013-01-26 06:22:00,45.0,42.0,30.15,NNW,330,0.0,0.0,89,0.00,,,0.00,,2013-01-26 12:22:00,
2013-01-26 06:33:00,45.0,42.0,30.15,NNW,330,0.0,0.0,89,0.00,,,0.00,,2013-01-26 12:33:00,
2013-01-26 06:42:00,45.0,42.0,30.15,NNW,330,0.0,0.0,89,0.00,,,0.00,,2013-01-26 12:42:00,
2013-01-26 06:53:00,45.0,42.0,30.17,NNW,330,0.0,0.0,89,0.00,,,0.00,,2013-01-26 12:53:00,
2013-01-26 07:03:00,45.0,42.0,30.17,NNW,330,0.0,0.0,88,0.00,,,0.00,,2013-01-26 13:03:00,
2013-01-26 07:12:00,45.0,42.0,30.17,NNW,330,0.0,0.0,88,0.00,,,0.00,,2013-01-26 13:12:00,
2013-01-26 07:22:00,45.0,42.0,30.18,NNW,330,0.0,0.0,88,0.00,,,0.00,,2013-01-26 13:22:00,
2013-01-26 07:32:00,45.0,41.0,30.18,NNW,330,0.0,0.0,87,0.00,,,0.00,,2013-01-26 13:32:00,
2013-01-26 07:42:00,45.0,41.0,30.18,NNW,330,0.0,0.0,87,0.00,,,0.00,,2013-01-26 13:42:00,
2013-01-26 07:53:00,45.0,42.0,30.18,NNW,330,0.0,0.0,88,0.00,,,0.00,,2013-01-26 13:53:00,
2013-01-26 08:02:00,45.0,42.0,30.18,NNW,330,0.0,0.0,89,0.00,,,0.00,,2013-01-26 14:02:00,
2013-01-26 08:12:00,45.0,42.0,30.18,NNW,330,0.0,0.0,89,0.00,,,0.00,,2013-01-26 14:12:00,
2013-01-26 08:21:00,45.0,42.0,30.18,NNW,330,0.0,0.0,90,0.00,,,0.00,,2013-01-26 14:21:00,
2013-01-26 08:32:00,45.0,43.0,30.19,NNW,330,0.0,0.0,91,0.00,,,0.00,,2013-01-26 14:32:00,
2013-01-26 08:43:00,45.0,43.0,30.19,NNW,330,0.0,0.0,91,0.00,,,0.00,,2013-01-26 14:43:00,
2013-01-26 08:53:00,45.0,43.0,30.19,NNW,330,0.0,0.0,92,0.00,,,0.00,,2013-01-26 14:53:00,
2013-01-26 09:02:00,45.0,43.0,30.20,NNW,330,0.0,0.0,92,0.00,,,0.00,,2013-01-26 15:02:00,
2013-01-26 09:12:00,45.0,43.0,30.20,NNW,330,0.0,0.0,92,0.00,,,0.00,,2013-01-26 15:12:00,
2013-01-26 09:22:00,45.0,43.0,30.20,NNW,330,0.0,0.0,93,0.00,,,0.00,,2013-01-26 15:22:00,
2013-01-26 09:32:00,45.0,43.0,30.20,NNW,330,0.0,0.0,93,0.00,,,0.00,,2013-01-26 15:32:00,
2013-01-26 09:43:00,45.0,43.0,30.20,NNW,330,0.0,0.0,93,0.00,,,0.00,,2013-01-26 15:43:00,
2013-01-26 09:53:00,45.0,43.0,30.20,NNW,330,0.0,0.0,93,0.00,,,0.00,,2013-01-26 15:53:00,
2013-01-26 10:02:00,46.0,44.0,30.20,NNW,330,0.0,0.0,93,0.00,,,0.00,,2013-01-26 16:02:00,
2013-01-26 10:12:00,46.0,44.0,30.21,NNW,330,0.0,0.0,93,0.00,,,0.00,,2013-01-26 16:12:00,
2013-01-26 10:22:00,46.0,44.0,30.21,NNW,330,0.0,0.0,93,0.00,,,0.00,,2013-01-26 16:22:00,
2013-01-26 10:32:00,47.0,45.0,30.21,NNW,330,0.0,0.0,93,0.00,,,0.00,,2013-01-26 16:32:00,
2013-01-26 10:42:00,47.0,45.0,30.21,NNW,330,0.0,0.0,93,0.00,,,0.00,,2013-01-26 16:42:00,
2013-01-26 10:53:00,47.0,45.0,30.22,NNW,330,0.0,0.0,92,0.00,,,0.00,,2013-01-26 16:53:00,
2013-01-26 11:03:00,47.0,45.0,30.22,NNW,330,0.0,0.0,92,0.00,,,0.00,,2013-01-26 17:03:00,
2013-01-26 11:12:00,47.0,45.0,30.22,NNW,330,0.0,0.0,92,0.00,,,0.00,,2013-01-26 17:12:00,
2013-01-26 11:22:00,48.0,45.0,30.22,NNW,330,0.0,0.0,91,0.00,,,0.00,,2013-01-26 17:22:00,
2013-01-26 11:32:00,48.0,45.0,30.21,NNW,330,0.0,0.0,91,0.00,,,0.00,,2013-01-26 17:32:00,
2013-01-26 11:42:00,48.0,45.0,30.21,NNW,330,0.0,0.0,91,0.00,,,0.00,,2013-01-26 17:42:00,
2013-01-26 11:53:00,49.0,46.0,30.21,NNW,330,0.0,0.0,89,0.00,,,0.00,,2013-01-26 17:53:00,
2013-01-26 12:02:00,50.0,47.0,30.21,NNW,330,0.0,0.0,89,0.00,,,0.00,,2013-01-26 18:02:00,
2013-01-26 12:12:00,50.0,47.0,30.21,NNW,330,0.0,0.0,89,0.00,,,0.00,,2013-01-26 18:12:00,
2013-01-26 12:22:00,50.0,46.0,30.19,NNW,330,0.0,0.0,87,0.00,,,0.00,,2013-01-26 18:22:00,
2013-01-26 12:33:00,51.0,47.0,30.19,NNW,332,0.0,0.0,86,0.00,,,0.00,,2013-01-26 18:33:00,
2013-01-26 12:42:00,51.0,47.0,30.19,NNW,332,0.0,0.0,86,0.00,,,0.00,,2013-01-26 18:42:00,
2013-01-26 12:52:00,52.0,47.0,30.18,NNW,333,0.0,0.0,84,0.00,,,0.00,,2013-01-26 18:52:00,
2013-01-26 13:03:00,52.0,47.0,30.17,NNW,333,0.0,0.0,84,0.00,,,0.00,,2013-01-26 19:03:00,
2013-01-26 13:12:00,52.0,47.0,30.17,NNW,333,0.0,0.0,84,0.00,,,0.00,,2013-01-26 19:12:00,
2013-01-26 13:22:00,52.0,47.0,30.16,NNW,333,0.0,0.0,83,0.00,,,0.00,,2013-01-26 19:22:00,
2013-01-26 13:32:00,53.0,48.0,30.15,NNW,333,0.0,0.0,82,0.00,,,0.00,,2013-01-26 19:32:00,
2013-01-26 13:42:00,53.0,48.0,30.15,NNW,333,0.0,0.0,82,0.00,,,0.00,,2013-01-26 19:42:00,
2013-01-26 13:53:00,53.0,47.0,30.14,NNW,333,0.0,0.0,81,0.00,,,0.00,,2013-01-26 19:53:00,
2013-01-26 14:02:00,54.0,48.0,30.13,NNW,341,0.0,0.0,81,0.00,,,0.00,,2013-01-26 20:02:00,
2013-01-26 14:11:00,54.0,48.0,30.13,NNW,341,0.0,0.0,81,0.00,,,0.00,,2013-01-26 20:11:00,
2013-01-26 14:21:00,54.0,48.0,30.12,NNW,342,0.0,0.0,80,0.00,,,0.00,,2013-01-26 20:21:00,
2013-01-26 14:32:00,54.0,48.0,30.12,NNW,347,0.0,0.0,80,0.00,,,0.00,,2013-01-26 20:32:00,
2013-01-26 14:42:00,54.0,48.0,30.12,NNW,347,0.0,0.0,80,0.00,,,0.00,,2013-01-26 20:42:00,
2013-01-26 14:52:00,54.0,48.0,30.12,North,0,0.0,0.0,80,0.00,,,0.00,,2013-01-26 20:52:00,
2013-01-26 15:02:00,54.0,48.0,30.11,NNE,12,0.0,0.0,80,0.00,,,0.00,,2013-01-26 21:02:00,
2013-01-26 15:12:00,54.0,48.0,30.11,NNE,12,0.0,0.0,80,0.00,,,0.00,,2013-01-26 21:12:00,
2013-01-26 15:22:00,54.0,48.0,30.11,ENE,67,0.0,0.0,81,0.00,,,0.00,,2013-01-26 21:22:00,
2013-01-26 15:32:00,54.0,48.0,30.12,ENE,65,0.0,0.0,81,0.00,,,0.00,,2013-01-26 21:32:00,
2013-01-26 15:42:00,54.0,48.0,30.12,ENE,65,0.0,0.0,81,0.00,,,0.00,,2013-01-26 21:42:00,
2013-01-26 15:52:00,55.0,49.0,30.12,ENE,71,0.0,0.0,80,0.00,,,0.00,,2013-01-26 21:52:00,
2013-01-26 16:01:00,54.0,48.0,30.11,ENE,73,0.0,0.0,81,0.00,,,0.00,,2013-01-26 22:01:00,
2013-01-26 16:11:00,54.0,48.0,30.11,ENE,73,0.0,0.0,81,0.00,,,0.00,,2013-01-26 22:11:00,
2013-01-26 16:21:00,54.0,48.0,30.11,ENE,77,0.0,0.0,81,0.00,,,0.00,,2013-01-26 22:21:00,
2013-01-26 16:31:00,54.0,48.0,30.11,ENE,78,0.0,0.0,81,0.00,,,0.00,,2013-01-26 22:31:00,
2013-01-26 16:42:00,54.0,48.0,30.11,ENE,78,0.0,0.0,81,0.00,,,0.00,,2013-01-26 22:42:00,
2013-01-26 16:52:00,54.0,49.0,30.11,ESE,103,0.0,0.0,82,0.00,,,0.00,,2013-01-26 22:52:00,
2013-01-26 17:01:00,54.0,49.0,30.11,ESE,105,0.0,0.0,83,0.00,,,0.00,,2013-01-26 23:01:00,
2013-01-26 17:11:00,54.0,49.0,30.11,ESE,105,0.0,0.0,83,0.00,,,0.00,,2013-01-26 23:11:00,
2013-01-26 17:22:00,53.0,48.0,30.11,ESE,106,0.0,0.0,84,0.00,,,0.00,,2013-01-26 23:22:00,
2013-01-26 17:32:00,53.0,49.0,30.11,ESE,110,0.0,0.0,86,0.00,,,0.00,,2013-01-26 23:32:00,
2013-01-26 17:41:00,53.0,49.0,30.11,ESE,110,0.0,0.0,86,0.00,,,0.00,,2013-01-26 23:41:00,
2013-01-26 17:52:00,52.0,48.0,30.11,ESE,106,0.0,0.0,87,0.00,,,0.00,,2013-01-26 23:52:00,
2013-01-26 18:02:00,52.0,48.0,30.11,ESE,103,0.0,0.0,87,0.00,,,0.00,,2013-01-27 00:02:00,
2013-01-26 18:11:00,52.0,48.0,30.11,ESE,103,0.0,0.0,87,0.00,,,0.00,,2013-01-27 00:11:00,
2013-01-26 18:21:00,52.0,49.0,30.11,ESE,109,0.0,0.0,88,0.00,,,0.00,,2013-01-27 00:21:00,
2013-01-26 18:32:00,52.0,49.0,30.11,ESE,105,0.0,0.0,89,0.00,,,0.00,,2013-01-27 00:32:00,
2013-01-26 18:41:00,52.0,49.0,30.11,ESE,105,0.0,0.0,89,0.00,,,0.00,,2013-01-27 00:41:00,
2013-01-26 18:52:00,52.0,49.0,30.11,ESE,113,0.0,0.0,89,0.00,,,0.00,,2013-01-27 00:52:00,
2013-01-26 19:01:00,52.0,49.0,30.11,ESE,113,0.0,0.0,89,0.00,,,0.00,,2013-01-27 01:01:00,
2013-01-26 19:11:00,52.0,49.0,30.11,ESE,113,0.0,0.0,89,0.00,,,0.00,,2013-01-27 01:11:00,
2013-01-26 19:22:00,52.0,49.0,30.11,ESE,115,0.0,0.0,90,0.00,,,0.00,,2013-01-27 01:22:00,
2013-01-26 19:32:00,52.0,49.0,30.11,ESE,115,0.0,0.0,91,0.00,,,0.00,,2013-01-27 01:32:00,
2013-01-26 19:41:00,52.0,49.0,30.11,ESE,115,0.0,0.0,91,0.00,,,0.00,,2013-01-27 01:41:00,
2013-01-26 19:52:00,52.0,49.0,30.12,ESE,115,0.0,0.0,91,0.00,,,0.00,,2013-01-27 01:52:00,
2013-01-26 20:01:00,51.0,49.0,30.11,ESE,113,0.0,0.0,92,0.00,,,0.00,,2013-01-27 02:01:00,
2013-01-26 20:11:00,51.0,49.0,30.11,ESE,113,0.0,0.0,92,0.00,,,0.00,,2013-01-27 02:11:00,
2013-01-26 20:21:00,51.0,49.0,30.11,ESE,111,0.0,0.0,92,0.00,,,0.00,,2013-01-27 02:21:00,
2013-01-26 20:31:00,51.0,49.0,30.11,ESE,110,0.0,0.0,93,0.00,,,0.00,,2013-01-27 02:31:00,
2013-01-26 20:41:00,51.0,49.0,30.11,ESE,110,0.0,0.0,93,0.00,,,0.00,,2013-01-27 02:41:00,
2013-01-26 20:52:00,51.0,49.0,30.11,ESE,110,0.0,0.0,93,0.00,,,0.00,,2013-01-27 02:52:00,
2013-01-26 21:02:00,51.0,49.0,30.11,ESE,107,0.0,0.0,93,0.00,,,0.00,,2013-01-27 03:02:00,
2013-01-26 21:11:00,51.0,49.0,30.11,ESE,107,0.0,0.0,93,0.00,,,0.00,,2013-01-27 03:11:00,
2013-01-26 21:21:00,51.0,49.0,30.10,ESE,107,0.0,0.0,93,0.00,,,0.00,,2013-01-27 03:21:00,
2013-01-26 21:32:00,51.0,49.0,30.10,ESE,108,0.0,0.0,93,0.00,,,0.00,,2013-01-27 03:32:00,
2013-01-26 21:42:00,51.0,49.0,30.10,ESE,108,0.0,0.0,93,0.00,,,0.00,,2013-01-27 03:42:00,
2013-01-26 21:52:00,51.0,49.0,30.09,ESE,113,0.0,0.0,93,0.00,,,0.00,,2013-01-27 03:52:00,
2013-01-26 22:01:00,51.0,49.0,30.10,ESE,113,0.0,0.0,94,0.00,,,0.00,,2013-01-27 04:01:00,
2013-01-26 22:11:00,51.0,49.0,30.10,ESE,113,0.0,0.0,94,0.00,,,0.00,,2013-01-27 04:11:00,
2013-01-26 22:21:00,51.0,49.0,30.09,ESE,114,0.0,0.0,94,0.00,,,0.00,,2013-01-27 04:21:00,
2013-01-26 22:32:00,51.0,49.0,30.09,ESE,115,0.0,0.0,94,0.00,,,0.00,,2013-01-27 04:32:00,
2013-01-26 22:41:00,51.0,49.0,30.09,ESE,115,0.0,0.0,94,0.00,,,0.00,,2013-01-27 04:41:00,
2013-01-26 22:52:00,51.0,50.0,30.09,ESE,113,0.0,0.0,95,0.00,,,0.00,,2013-01-27 04:52:00,
2013-01-26 23:03:00,51.0,50.0,30.09,ESE,114,0.0,0.0,95,0.00,,,0.00,,2013-01-27 05:03:00,
2013-01-26 23:12:00,51.0,50.0,30.09,ESE,114,0.0,0.0,95,0.00,,,0.00,,2013-01-27 05:12:00,
2013-01-26 23:22:00,51.0,50.0,30.09,ESE,115,0.0,0.0,95,0.00,,,0.00,,2013-01-27 05:22:00,
2013-01-26 23:32:00,51.0,50.0,30.09,ESE,115,0.0,0.0,95,0.00,,,0.00,,2013-01-27 05:32:00,
2013-01-26 23:41:00,51.0,50.0,30.09,ESE,115,0.0,0.0,95,0.00,,,0.00,,2013-01-27 05:41:00,
2013-01-26 23:52:00,51.0,50.0,30.09,ESE,117,0.0,0.0,95,0.00,,,0.00,,2013-01-27 05:52:00,